Regional Weather Roundup
Issued by NWS

Home | Current Version | Previous Version | Text Only | Print | Product List | Glossary Off
Versions: 1 2 3 4 5 6 7 8 9 10 11 12 13 14 15 16 17 18 19 20 21 22 23 24 25 26 27 28

000
ASUS45 KSLC 291010
RWRUT

UTAH REGIONAL WEATHER ROUNDUP
NATIONAL WEATHER SERVICE SALT LAKE CITY UT
400 AM MDT WED OCT 29 2014

UTZ001>011-023>025-291100-

NORTHERN UTAH

CITY           SKY/WX    TMP DP  RH WIND       PRES   REMARKS
BRIGHAM CITY   CLEAR     32  25  74 NW6       30.27S WCI  26
HILL AFB       PTCLDY    40  15  36 E15       30.26S WCI  32
LOGAN          CLEAR     27  20  75 CALM      30.27F
OGDEN          PTCLDY    38  17  42 S7        30.25F WCI  33
PROVO AIRPORT  PTCLDY    32  19  59 SE3       30.29R
SALT LAKE CITY CLEAR     37  24  59 SE7       30.25F WCI  32
VERNAL         PTCLDY    31  20  63 CALM      30.30F
WENDOVER       PTCLDY    34  21  60 NE6       30.26S WCI  29
HEBER CITY     PTCLDY    23  18  80 CALM      30.31S
WEST JORDAN    CLEAR     39  27  60 S6        30.27S WCI  35

$$

UTZ012>022-026-027-291100-

SOUTHERN/CENTRAL UTAH

CITY           SKY/WX    TMP DP  RH WIND       PRES   REMARKS
BLANDING       PTCLDY    40  13  33 CALM      30.35S
BRYCE CANYON   PTCLDY    24  14  65 W7        30.36S WCI  16
CEDAR CITY     PTCLDY    29  17  61 CALM      30.28S
DELTA          PTCLDY    32  17  52 E7        30.28S WCI  26
HANKSVILLE       N/A     30  10  43 CALM      30.29F
MILFORD        CLEAR     32  15  49 W6        30.27S WCI  26
MOAB/CYNLANDS  CLEAR     33   9  36 CALM      30.27R
PRICE          CLEAR     34   9  35 N6        30.29S WCI  29
ST GEORGE      MOSUNNY   48  12  23 SW3       30.20S
KANAB            N/A     39  16  38 NW16      30.28F WCI  30

$$

REGIONAL REPORTS     COLORADO/ARIZONA

CITY           SKY/WX    TMP DP  RH WIND       PRES   REMARKS
CRAIG, CO      PTCLDY    20  16  84 SW3       30.32F
GRAND JUNCTION CLEAR     36  14  40 SE9       30.29S WCI  29
RIFLE          PTCLDY    27  14  58 S3        30.34S
MONTROSE       PTCLDY    31  15  52 S10       30.34F WCI  22
CORTEZ         CLEAR     27  15  61 E6        30.30F WCI  20
PAGE, AZ       CLEAR     49  21  33 SW5       30.23S
GRAND CANYON   PTCLDY    29  18  63 NE6       30.31F WCI  23
KINGMAN        CLEAR     48  25  40 E8        30.15S
FLAGSTAFF      PTCLDY    32  27  81 CALM      30.32S

$$

REGIONAL REPORTS    NEVADA/IDAHO/WYOMING

CITY           SKY/WX    TMP DP  RH WIND       PRES   REMARKS
LAS VEGAS, NV  CLEAR     58  22  24 SW6       30.08S
ELY            CLEAR     28  12  51 S15       30.30F WCI  16
ELKO           PTCLDY    30  13  49 E5        30.27S WCI  25
POCATELLO, ID  CLEAR     28  21  75 N8        30.21F WCI  20
BURLEY         PTCLDY    37  22  54 CALM      30.18S
EVANSTON, WY   PTCLDY    36   7  29 S6        30.29F WCI  31
ROCK SPRINGS   PTCLDY    30  11  45 S10       30.27F WCI  21

$$



USA.gov is the U.S. government's official web portal to all federal, state and local government web resources and services.